Zacatecas Airport, Mexico

5:51 PM CDT on August 18, 2017 (GMT -0500)
Gen Leobardo C Ruiz International

Weather History for MMZC - March, 2013

Change the Weather History Date:

Friday, March 1, 2013

  Actual Average Record
Temperature  
Mean Temperature 46 °F -  
Max Temperature 60 °F 72 °F 80 °F (2007)
Min Temperature 32 °F 38 °F 30 °F (1998)
Degree Days  
Heating Degree Days 18    
Moisture  
Dew Point 6 °F    
Average Humidity 23    
Maximum Humidity 41    
Minimum Humidity 12    
Precipitation  
Precipitation 0.00 in - - ()
Sea Level Pressure  
Sea Level Pressure 30.30 in    
Wind  
Wind Speed 11 mph ()    
Max Wind Speed 23 mph    
Max Gust Speed 29 mph    
Visibility 10.0 miles    
Events      
Averages and records for this station are not official NWS values.
T = Trace of Precipitation, MM = Missing Value Source: Averaged Metar Reports

Daily Weather History Graph

Daily Weather History Graph

Search for Another Location

Airport or City:

Trip Planner

Search our weather history database for the weather conditions in past years. The results will help you decide how hot, cold, wet, or windy it might be!

Date:

Astronomy

Mar. 01, 2013 Rise Set
Actual Time 7:11 AM CST 6:54 PM CST
Civil Twilight 6:49 AM CST 7:16 PM CST
Nautical Twilight 6:23 AM CST 7:43 PM CST
Astronomical Twilight 5:57 AM CST 8:09 PM CST
Moon 10:51 PM CST (3/1) 9:34 AM CST (3/1)
Length of Visible Light 12h 27m
Length of Day
11h 42m
Waning Gibbous, 83% of the Moon is Illuminated
Mar 1
Waning Gibbous
Mar 4
Last Quarter
Mar 11
New
Mar 19
First Quarter
Mar 27
Full

Hourly Weather History & Observations

Time (CST) Temp. Windchill Dew Point Humidity Pressure Visibility Wind Dir Wind Speed Gust Speed Precip Events Conditions
12:42 AM 44.6 °F 38.8 °F 12.2 °F 27% 30.25 in 10.0 mi NNE 11.5 mph - N/A   Scattered Clouds
1:44 AM 41.0 °F 35.2 °F 12.2 °F 31% 30.26 in 10.0 mi NNE 9.2 mph - N/A   Scattered Clouds
2:47 AM 39.2 °F 34.2 °F 12.2 °F 33% 30.25 in 10.0 mi NNE 6.9 mph - N/A   Scattered Clouds
3:41 AM 37.4 °F 31.4 °F 12.2 °F 36% 30.24 in 10.0 mi NNE 8.1 mph - N/A   Partly Cloudy
4:41 AM 35.6 °F 28.0 °F 12.2 °F 38% 30.25 in 10.0 mi NE 10.4 mph - N/A   Partly Cloudy
5:45 AM 35.6 °F 29.2 °F 12.2 °F 38% 30.26 in 10.0 mi NE 8.1 mph - N/A   Clear
6:47 AM 33.8 °F 27.0 °F 12.2 °F 41% 30.28 in 10.0 mi NE 8.1 mph - N/A   Partly Cloudy
7:42 AM 35.6 °F 28.6 °F 12.2 °F 38% 30.30 in 10.0 mi NE 9.2 mph - N/A   Partly Cloudy
8:42 AM 41.0 °F 34.3 °F 12.2 °F 31% 30.32 in 10.0 mi NNE 11.5 mph - N/A   Scattered Clouds
9:42 AM 46.4 °F 39.8 °F 12.2 °F 25% 30.33 in 10.0 mi NNE 16.1 mph - N/A   Scattered Clouds
10:42 AM 50.0 °F - 10.4 °F 20% 30.33 in 10.0 mi NNE 13.8 mph 25.3 mph N/A   Clear
11:42 AM 53.6 °F - 12.2 °F 19% 30.33 in 10.0 mi North 23.0 mph - N/A   Clear
12:42 PM 57.2 °F - 10.4 °F 16% 30.31 in 10.0 mi North 23.0 mph - N/A   Clear
1:42 PM 57.2 °F - 6.8 °F 13% 30.28 in 10.0 mi NE 17.3 mph - N/A   Clear
2:49 PM 57.2 °F - 10.4 °F 16% 30.26 in 10.0 mi NNE 13.8 mph 25.3 mph N/A   Scattered Clouds
3:50 PM 60.8 °F - 8.6 °F 13% 30.25 in 10.0 mi NNE 23.0 mph - N/A   Mostly Cloudy
5:06 PM 57.2 °F - 5.0 °F 12% 30.26 in 10.0 mi NNE 17.3 mph 28.8 mph N/A   Mostly Cloudy
5:50 PM 57.2 °F - 5.0 °F 12% 30.28 in 10.0 mi NE 16.1 mph - N/A   Mostly Cloudy
6:48 PM 51.8 °F - 1.4 °F 13% 30.29 in 10.0 mi NE 12.7 mph - N/A   Mostly Cloudy
7:44 PM 46.4 °F 41.5 °F -4.0 °F 12% 30.32 in 10.0 mi ENE 10.4 mph - N/A   Scattered Clouds
8:43 PM 46.4 °F 41.1 °F -4.0 °F 12% 30.35 in 10.0 mi NE 11.5 mph - N/A   Partly Cloudy
9:54 PM 35.6 °F 29.2 °F -11.2 °F 13% 30.37 in 10.0 mi NNE 8.1 mph - N/A   Clear
10:44 PM 33.8 °F 28.6 °F -9.4 °F 15% 30.38 in 10.0 mi NE 5.8 mph - N/A   Clear
11:44 PM 32.0 °F 24.8 °F -9.4 °F 17% 30.38 in 10.0 mi NNE 8.1 mph - N/A   Clear